Location: Eastchurch
(51.4000°N, 0.8667°E)
Time: 09:54:42
(UTC+00:00)

Cosmos 1656 - Pass Details

Date: 19 January 2026
Orbit: 797 x 847 km, 71.1° (Epoch: 18 February)

Event Time Altitude Azimuth Distance (km) Brightness Sun altitude
Rises 17:43:22 0° 328° (NNW) 3,396 7.0 -12.1°
Reaches altitude 10° 17:45:50 10° 327° (NNW) 2,451 6.3 -12.4°
Maximum altitude 17:51:26 72° 245° (WSW) 869 4.0 -13.3°
Drops below altitude 10° 17:56:54 10° 161° (SSE) 2,400 6.0 -14.1°
Sets 17:59:18 0° 160° (SSE) 3,321 6.7 -14.4°
